Weather History for McKinney, TX

Change the Weather History Date:

Monday, November 5, 2012

  Actual Average (KADS) Record (KADS)
Temperature  
Mean Temperature 60 °F -  
Max Temperature 73 °F 66 °F 86 °F (2005)
Min Temperature 48 °F 50 °F 41 °F (2010)
Degree Days  
Heating Degree Days 4    
Growing Degree Days 10 (Base 50)    
Moisture  
Dew Point 44 °F    
Average Humidity 69    
Maximum Humidity 100    
Minimum Humidity 20    
Precipitation  
Precipitation 0.00 in - - ()
Sea Level Pressure  
Sea Level Pressure 30.07 in    
Wind  
Wind Speed 3 mph (NNW)    
Max Wind Speed 18 mph    
Max Gust Speed 28 mph    
Visibility 6 miles    
Events Fog    
Averages and records for this station are not official NWS values.
T = Trace of Precipitation, MM = Missing Value Source: NWS Daily Summary

Daily Weather History Graph

Daily Weather History Graph

Search for Another Location

Airport:

Trip Planner

Search our weather history database for the weather conditions in past years. The results will help you decide how hot, cold, wet, or windy it might be!

Date:

Astronomy

Nov. 05, 2012 Rise Set
Actual Time 6:48 AM CST 5:30 PM CST
Civil Twilight 6:22 AM CST 5:56 PM CST
Nautical Twilight 5:53 AM CST 6:26 PM CST
Astronomical Twilight 5:24 AM CST 6:55 PM CST
Moon 11:08 PM CST (11/5) 12:08 PM CST (11/5)
Length of Visible Light 11h 33m
Length of Day
10h 42m
Waning Gibbous, 62% of the Moon is Illuminated
Nov 5
Waning Gibbous
Nov 6
Last Quarter
Nov 13
New
Nov 20
First Quarter
Nov 28
Full

Hourly Weather History & Observations

Time (CST) Temp. Dew Point Humidity Pressure Visibility Wind Dir Wind Speed Gust Speed Precip Events Conditions
12:53 AM 54.0 °F 51.1 °F 90% 30.08 in 7.0 mi Calm Calm - N/A   Clear
1:04 AM 51.8 °F 50.0 °F 94% 30.07 in 1.8 mi Calm Calm - N/A   Clear
1:13 AM 51.8 °F 50.0 °F 94% 30.07 in 3.0 mi Calm Calm - N/A   Clear
1:53 AM 50.0 °F 46.9 °F 89% 30.08 in 9.0 mi Calm Calm - N/A   Clear
2:53 AM 48.9 °F 46.9 °F 93% 30.07 in 5.0 mi Calm Calm - N/A   Clear
3:22 AM 48.2 °F 46.4 °F 93% 30.06 in 5.0 mi North 3.5 mph - N/A   Scattered Clouds
3:30 AM 48.2 °F 46.4 °F 93% 30.06 in 5.0 mi Calm Calm - N/A   Mostly Cloudy
3:53 AM 50.0 °F 46.9 °F 89% 30.06 in 4.0 mi Calm Calm - N/A   Overcast
4:28 AM 51.8 °F 48.2 °F 88% 30.05 in 1.8 mi Calm Calm - N/A   Overcast
4:37 AM 51.8 °F 50.0 °F 94% 30.05 in 0.5 mi Calm Calm - N/A Fog Fog
4:51 AM 51.8 °F 51.8 °F 100% 30.06 in 0.2 mi Calm Calm - N/A Fog Fog
4:53 AM 52.0 °F 51.1 °F 97% 30.06 in 0.2 mi Calm Calm - N/A Fog Fog
5:53 AM 53.1 °F 53.1 °F 100% 30.07 in 0.2 mi Calm Calm - N/A Fog Fog
6:53 AM 54.0 °F 54.0 °F 100% 30.07 in 0.2 mi Calm Calm - N/A Fog Fog
7:53 AM 55.0 °F 54.0 °F 96% 30.07 in 0.2 mi Calm Calm - N/A Fog Fog
8:23 AM 55.4 °F 55.4 °F 100% 30.07 in 2.0 mi Calm Calm - N/A   Overcast
8:24 AM 55.4 °F 55.4 °F 100% 30.07 in 0.8 mi Calm Calm - N/A   Overcast
8:40 AM 55.4 °F 55.4 °F 100% 30.07 in 4.0 mi Calm Calm - N/A   Mostly Cloudy
8:53 AM 57.9 °F 55.0 °F 90% 30.09 in 4.0 mi North 4.6 mph - N/A   Scattered Clouds
9:53 AM 64.9 °F 50.0 °F 58% 30.09 in 10.0 mi NNW 8.1 mph - N/A   Clear
10:53 AM 70.0 °F 44.1 °F 39% 30.08 in 10.0 mi NNW 15.0 mph 19.6 mph N/A   Clear
11:53 AM 72.0 °F 41.0 °F 33% 30.07 in 10.0 mi NNW 11.5 mph 18.4 mph N/A   Clear
12:53 PM 73.0 °F 39.0 °F 29% 30.04 in 10.0 mi North 15.0 mph 24.2 mph N/A   Clear
1:53 PM 73.9 °F 39.0 °F 28% 30.02 in 10.0 mi NNW 16.1 mph 23.0 mph N/A   Clear
2:53 PM 73.0 °F 36.0 °F 26% 30.03 in 10.0 mi NNW 16.1 mph 27.6 mph N/A   Clear
3:53 PM 73.9 °F 34.0 °F 23% 30.02 in 10.0 mi NNW 18.4 mph 26.5 mph N/A   Clear
4:53 PM 72.0 °F 28.9 °F 20% 30.03 in 10.0 mi NNW 17.3 mph 23.0 mph N/A   Clear
5:53 PM 66.9 °F 28.0 °F 23% 30.05 in 10.0 mi NNW 9.2 mph - N/A   Clear
6:53 PM 64.0 °F 27.0 °F 25% 30.08 in 10.0 mi NNW 9.2 mph - N/A   Clear
7:53 PM 60.1 °F 30.0 °F 32% 30.10 in 10.0 mi NNW 6.9 mph - N/A   Clear
8:53 PM 55.9 °F 30.9 °F 39% 30.10 in 10.0 mi NNW 4.6 mph - N/A   Clear
9:53 PM 53.1 °F 33.1 °F 47% 30.12 in 10.0 mi North 5.8 mph - N/A   Clear
10:53 PM 52.0 °F 36.0 °F 54% 30.13 in 10.0 mi North 6.9 mph - N/A   Clear
11:53 PM 50.0 °F 37.0 °F 61% 30.13 in 10.0 mi North 4.6 mph - N/A   Clear